TimeMST,TemperatureF,Dew PointF,Humidity,Sea Level PressureIn,VisibilityMPH,Wind Direction,Wind SpeedMPH,Gust SpeedMPH,PrecipitationIn,Events,Conditions,WindDirDegrees,DateUTC
12:55 AM,48.9,39.0,69,30.06,10.0,Calm,Calm,-,N/A,,Scattered Clouds,0,2012-12-24 07:55:00
1:55 AM,50.0,39.0,66,30.04,10.0,WSW,8.1,-,N/A,,Scattered Clouds,240,2012-12-24 08:55:00
2:55 AM,48.9,37.9,66,30.02,10.0,South,3.5,-,N/A,,Scattered Clouds,190,2012-12-24 09:55:00
3:55 AM,48.9,39.0,69,30.01,10.0,South,5.8,-,N/A,,Scattered Clouds,180,2012-12-24 10:55:00
4:55 AM,50.0,37.9,63,30.00,10.0,SW,3.5,-,N/A,,Scattered Clouds,220,2012-12-24 11:55:00
5:55 AM,48.9,39.0,69,30.01,10.0,SE,4.6,-,N/A,,Scattered Clouds,140,2012-12-24 12:55:00
6:55 AM,51.1,37.9,61,30.02,10.0,SE,4.6,-,N/A,,Scattered Clouds,140,2012-12-24 13:55:00
7:55 AM,48.9,37.9,66,30.04,10.0,Calm,Calm,-,N/A,,Partly Cloudy,0,2012-12-24 14:55:00
8:55 AM,54.0,39.0,57,30.02,10.0,SSE,3.5,-,N/A,,Partly Cloudy,160,2012-12-24 15:55:00
9:55 AM,57.9,39.9,51,30.03,10.0,SW,8.1,-,N/A,,Partly Cloudy,230,2012-12-24 16:55:00
10:55 AM,61.0,43.0,52,30.04,10.0,West,8.1,-,N/A,,Partly Cloudy,260,2012-12-24 17:55:00
11:55 AM,64.9,41.0,42,30.02,10.0,WSW,11.5,-,N/A,,Partly Cloudy,240,2012-12-24 18:55:00
12:55 PM,66.9,37.9,34,29.98,10.0,SSW,6.9,-,N/A,,Partly Cloudy,200,2012-12-24 19:55:00
1:55 PM,68.0,37.9,33,29.95,10.0,SSW,8.1,-,N/A,,Partly Cloudy,200,2012-12-24 20:55:00
2:55 PM,70.0,39.9,33,29.92,10.0,SW,9.2,-,N/A,,Partly Cloudy,220,2012-12-24 21:55:00
3:55 PM,70.0,42.1,36,29.91,10.0,WSW,10.4,-,N/A,,Scattered Clouds,240,2012-12-24 22:55:00
4:55 PM,69.1,42.1,38,29.90,10.0,SW,10.4,-,N/A,,Partly Cloudy,230,2012-12-24 23:55:00
5:55 PM,64.9,44.1,47,29.90,10.0,West,3.5,-,N/A,,Partly Cloudy,280,2012-12-25 00:55:00
6:55 PM,64.0,39.9,41,29.91,10.0,WNW,10.4,-,N/A,,Clear,290,2012-12-25 01:55:00
7:55 PM,63.0,39.0,41,29.94,10.0,NW,5.8,-,N/A,,Clear,310,2012-12-25 02:55:00
8:55 PM,57.0,43.0,59,29.96,10.0,WSW,8.1,-,N/A,,Clear,240,2012-12-25 03:55:00
9:55 PM,55.9,41.0,57,29.97,10.0,West,8.1,-,N/A,,Clear,280,2012-12-25 04:55:00
10:55 PM,54.0,41.0,62,30.01,10.0,South,4.6,-,N/A,,Partly Cloudy,170,2012-12-25 05:55:00
11:55 PM,52.0,43.0,71,30.03,10.0,Variable,3.5,-,N/A,,Partly Cloudy,0,2012-12-25 06:55:00